Tracking 30009 objects as of 7-Dec-2024
HD Live streaming from Space Station
objects crossing your sky now

STARLINK-31125

Track STARLINK-31125 now!
10-day predictions
STARLINK-31125 is classified as:


NORAD ID: 58678
Int'l Code: 2023-211M
Perigee: 494.5 km
Apogee: 495.9 km
Inclination: 43.0 °
Period: 94.4 minutes
Semi major axis: 6866 km
RCS: Unknown
Launch date: December 29, 2023
Source: United States (US)
Launch site: AIR FORCE EASTERN TEST RANGE (AFETR)
Your satellite tracking list
Your tracking list is empty




NASA's NSSDC Master Catalog

Two Line Element Set (TLE):
1 58678U 23211M   24341.75437390  .00000579  00000-0  31966-4 0  9995
2 58678  42.9999 148.5049 0000980 266.7106  93.3633 15.25908170 53636
Source of the keplerian elements: AFSPC